Location: Catacaguana
(10.4120°N, 66.7591°W)
Time: 05:15:43
(UTC+00:00)

Hubble Space Telescope - Pass Details

Date: 27 May 2022
Orbit: 532 x 536 km, 28.5° (Epoch: 26 June)

Event Time Altitude Azimuth Distance (km) Brightness Sun altitude
Exits shadow 08:04:41 11° 134° (SE) 1,724 3.5 -27.3°
Drops below altitude 10° 08:05:07 10° 128° (SE) 1,775 3.6 -27.2°
Sets 08:08:46 0° 95° (E) 2,664 5.1 -26.4°
